Find Starlink 6047

NORAD ID: 56460 Int'l Des: 2023-064 Owner: SPXS Country: US Constellation: starlink operational
LEOCIRCULAR

現在のビュー

3D地球を読み込み中...

About Starlink 6047

Starlink 6047 (NORAD 56460) is a starlink constellation satellite (v1.5) launched May 10, 2023 by SPXS of US. It operates in LEO, CIRCULAR orbit with a mass of 305.00 kg.

次回通過

Passes for default location (London). Set your location on the main map for personalized predictions.

高度履歴

Loading altitude history...

軌道要素

1 56460U 23064N 26263.60334295 .00000352 00000-0 37287-4 0 9998
2 56460 70.0008 12.9533 0003194 271.0756 89.0037 14.98331869184446
Epoch: Sep 20, 2026 • Age: 9 hours

現在のステータス

高度 576.0 km
遠地点 / 近地点 N/A
速度 7.57 km/s
衛星直下点 27.69°N, 166.17°W
打ち上げ日 May 10, 2023
運用期間 3.3 years
タイプ internet

技術仕様

分類 Payload
質量 305.00 kg
乾燥質量 290.00 kg
長さ 0.20 m
スパン 9.00 m
形状 ? Box + pan
製造者 SPXS
バスタイプ Starlink
フェーズステータス In Orbit
所有者/国 SPXS/US

Most Searched